Back to catalog

STARLINK-35177

AliveCommunicationsSSO
NORAD 65673·PAYLOAD·🇺🇸 United States

Launched Sep 19, 2025 from Vandenberg Space Force Base

Loading…

Next Passes (next 24 hours)

TLE

FreshSource: CelesTrak SupGP

Epoch: Sep 14, 2026, 14:28 UTC

1 65673C 25211X   26257.60326389  .00028450  00000+0  88324-3 0  2570
2 65673  97.2837 297.9540 0000884 110.7561 181.5753 15.33421977    15

Track STARLINK-35177 in real time with AllMySat

Download on the App Store